Location: Mentone
(34.5413°N, 85.5351°W)
Time: 08:50:59
(UTC-05:00)

Cosmos 2026 Rocket - Visible Passes

Search period start: 30 September 2014 00:00
Search period end: 10 October 2014 00:00
Orbit: 941 x 1001 km, 82.9° (Epoch: 29 September)

Date Brightness Start Highest point End Pass type
(mag) Time Alt. Az. Time Alt. Az. Time Alt. Az.
02 Oct 6.5 21:46:27 11° N 21:46:27 11° N 21:46:37 10° N visible
03 Oct 6.6 22:10:05 11° N 22:10:05 11° N 22:10:22 10° N visible
04 Oct 6.3 20:49:07 11° NNE 20:49:07 11° NNE 20:49:13 10° NNE visible
05 Oct 6.1 21:12:37 15° N 21:12:37 15° N 21:13:32 10° N visible
06 Oct 6.1 21:36:03 17° N 21:36:03 17° N 21:37:27 10° N visible
07 Oct 5.8 20:14:51 15° NNE 20:14:51 15° NNE 20:15:53 10° NNE visible
07 Oct 6.3 21:59:22 17° NNW 21:59:22 17° NNW 22:00:55 10° NNW visible
08 Oct 5.4 20:38:01 24° NNE 20:38:01 24° NNE 20:40:23 10° NNE visible
08 Oct 6.6 22:22:31 13° NW 22:22:31 13° NW 22:23:35 10° NW visible
09 Oct 5.8 19:16:24 11° NE 19:16:24 11° NE 19:16:43 10° NE visible
09 Oct 5.1 21:00:53 36° N 21:00:53 36° N 21:04:28 10° N visible
